sat.trackr.live / text

‹ back to catalog

IRIDIUM 114

NORAD 41923 · 2017-003G

PAYLOAD ACTIVE UNKNOWN

§ Identity

Operator
Country
US
Launch date
2017-01-14
Launch site
AFWTR
Launch vehicle
Mass (kg)
RCS (m²)
2.44

Purposes: comms

External: N2YO · Heavens-Above · Gunter

§ Orbital elements

Epoch: 2026-05-24T21:55:10.289856Z

Period
100.40 min
Inclination
86.3949°
Eccentricity
0.0002460
Mean motion
14.34217802 rev/d
Perigee alt
775.9 km
Apogee alt
779.4 km
Semi-major
7,155.8 km
B*
6.6941e-6
RAAN
98.1939°
Arg perigee
86.5938°
Mean anomaly
273.5539°
Rev number
48,991

§ Raw data

IRIDIUM 1141 41923U 17003G   26144.91331354  .00000039  00000+0  66941-5 0  99982 41923  86.3949  98.1939 0002460  86.5938 273.5539 14.34217802489917

JSON: /api/v1/satellites/41923 · /tle

For live sub-satellite position, see the globe view (requires WebGL).

§ Visibility from observer

Set your observer location to see the next 7 days of passes ≥ 10°. The values pass through the URL so the page stays shareable.

No JS? Fill the form by hand. The geolocation button needs JavaScript.